Tracking 29606 objects as of 18-Sep-2024
HD Live streaming from Space Station
objects crossing your sky now

SL-12 R/B(2)

Track SL-12 R/B(2) now!


NORAD ID: 28704
Int'l Code: 2005-023H
Perigee: 35,601.8 km
Apogee: 35,682.7 km
Inclination: 12.2 °
Period: 1,428.4 minutes
Semi major axis: 42013 km
RCS: 5.0238 m2 (large)
Launch date: June 24, 2005
Source: Commonwealth of Independent States (former USSR) (CIS)
Launch site: TYURATAM MISSILE AND SPACE COMPLEX (TTMTR)

Note: This is a ROCKET BODY
Your satellite tracking list
Your tracking list is empty




NASA's NSSDC Master Catalog

Two Line Element Set (TLE):
1 28704U 05023H   24261.45723314  .00000026  00000-0  00000-0 0  9993
2 28704  12.2236  23.4118 0009625 315.8587 228.6982  1.00814505 70779
Source of the keplerian elements: AFSPC